DLH107 EDDM-EDDF

Flight info

Callsign DLH107
Flight time 0h 25m
Altitude 24000
Route GIVMI6Q/08L GIVMI Y101 ERNAS T161 DEBHI DEBHI1B
Aircraft A359/H-SDE2E3GHIJ3J4J5LM1ORWXY/LB1D1

Departure

Time 2026-05-06 14:12
Airport Munich Airport (EDDM)

Arrival

Time 2026-05-06 14:37
Airport Frankfurt Main Airport (EDDF)
Time Latitude Longitude Altitude Speed Heading
2026-05-06 13:40 48.35411 11.79319 1478 ft 0 kts 270°
2026-05-06 13:58 48.35411 11.79329 1492 ft 4 kts 270°
2026-05-06 13:58 48.35410 11.79370 1492 ft 4 kts 270°
2026-05-06 13:58 48.35410 11.79402 1476 ft 4 kts 272°
2026-05-06 13:59 48.35404 11.79439 1492 ft 4 kts 305°
2026-05-06 13:59 48.35385 11.79464 1476 ft 4 kts 345°
2026-05-06 13:59 48.35361 11.79470 1492 ft 4 kts 353°
2026-05-06 13:59 48.35345 11.79473 1492 ft 0 kts 353°
2026-05-06 14:00 48.35346 11.79473 1492 ft 0 kts 353°
2026-05-06 14:05 48.35347 11.79473 1492 ft 2 kts 353°
2026-05-06 14:05 48.35381 11.79467 1480 ft 8 kts 353°
2026-05-06 14:05 48.35457 11.79454 1484 ft 13 kts 353°
2026-05-06 14:05 48.35552 11.79437 1489 ft 15 kts 353°
2026-05-06 14:06 48.35662 11.79418 1485 ft 17 kts 353°
2026-05-06 14:06 48.35784 11.79396 1489 ft 19 kts 353°
2026-05-06 14:06 48.35892 11.79373 1489 ft 15 kts 340°
2026-05-06 14:06 48.35993 11.79331 1489 ft 15 kts 351°
2026-05-06 14:07 48.36087 11.79282 1488 ft 14 kts 298°
2026-05-06 14:07 48.36080 11.79143 1485 ft 14 kts 263°
2026-05-06 14:07 48.36067 11.78981 1482 ft 17 kts 263°
2026-05-06 14:07 48.36053 11.78798 1492 ft 19 kts 263°
2026-05-06 14:08 48.36038 11.78596 1492 ft 21 kts 264°
2026-05-06 14:08 48.36021 11.78374 1483 ft 22 kts 263°
2026-05-06 14:08 48.36002 11.78134 1481 ft 24 kts 263°
2026-05-06 14:08 48.35984 11.77895 1488 ft 19 kts 263°
2026-05-06 14:09 48.35974 11.77758 1491 ft 20 kts 263°
2026-05-06 14:09 48.35957 11.77534 1483 ft 22 kts 263°
2026-05-06 14:09 48.35932 11.77213 1482 ft 24 kts 263°
2026-05-06 14:09 48.35912 11.76955 1491 ft 24 kts 264°
2026-05-06 14:10 48.35976 11.76826 1488 ft 13 kts 350°
2026-05-06 14:10 48.36042 11.76815 1491 ft 15 kts 354°
2026-05-06 14:10 48.36151 11.76797 1478 ft 17 kts 354°
2026-05-06 14:10 48.36268 11.76818 1476 ft 17 kts 36°
2026-05-06 14:11 48.36294 11.76952 1478 ft 14 kts 84°
2026-05-06 14:11 48.36302 11.77079 1481 ft 17 kts 84°
2026-05-06 14:11 48.36333 11.77492 1490 ft 74 kts 83°
2026-05-06 14:11 48.36420 11.78599 1488 ft 137 kts 83°
2026-05-06 14:12 48.36547 11.80272 1714 ft 171 kts 83°
2026-05-06 14:12 48.36678 11.82012 2501 ft 164 kts 83°
2026-05-06 14:12 48.36803 11.83714 3318 ft 162 kts 84°
2026-05-06 14:12 48.37332 11.85274 3678 ft 185 kts 41°
2026-05-06 14:13 48.38578 11.86010 4024 ft 205 kts
2026-05-06 14:13 48.40089 11.86292 4310 ft 233 kts
2026-05-06 14:13 48.41778 11.86027 4665 ft 257 kts 339°
2026-05-06 14:13 48.43231 11.84372 5358 ft 268 kts 312°
2026-05-06 14:14 48.44431 11.82223 6196 ft 274 kts 309°
2026-05-06 14:14 48.45645 11.79982 7085 ft 278 kts 310°
2026-05-06 14:14 48.46895 11.77711 8000 ft 283 kts 310°
2026-05-06 14:14 48.48178 11.75413 8926 ft 288 kts 310°
2026-05-06 14:15 48.49473 11.73114 9824 ft 292 kts 310°
2026-05-06 14:15 48.50800 11.70766 10728 ft 296 kts 310°
2026-05-06 14:15 48.52150 11.68382 11615 ft 300 kts 309°
2026-05-06 14:15 48.53515 11.65972 12566 ft 301 kts 308°
2026-05-06 14:16 48.54863 11.63589 13499 ft 303 kts 308°
2026-05-06 14:16 48.56238 11.61155 14315 ft 307 kts 308°
2026-05-06 14:16 48.57640 11.58676 15057 ft 314 kts 308°
2026-05-06 14:16 48.59101 11.56084 15441 ft 332 kts 307°
2026-05-06 14:17 48.60636 11.53353 15788 ft 350 kts 308°
2026-05-06 14:17 48.62252 11.50478 16134 ft 367 kts 308°
2026-05-06 14:17 48.63935 11.47485 16636 ft 378 kts 308°
2026-05-06 14:17 48.65633 11.44467 17286 ft 384 kts 308°
2026-05-06 14:18 48.71130 11.35472 19364 ft 401 kts 319°
2026-05-06 14:18 48.80637 11.25681 22117 ft 420 kts 324°
2026-05-06 14:18 48.89863 11.14558 23753 ft 419 kts 315°
2026-05-06 14:18 48.98271 11.02744 23759 ft 414 kts 314°
2026-05-06 14:19 49.06737 10.90826 23766 ft 414 kts 314°
2026-05-06 14:19 49.15206 10.78869 23775 ft 414 kts 314°
2026-05-06 14:19 49.23521 10.66618 23775 ft 413 kts 311°
2026-05-06 14:19 49.31491 10.53911 23786 ft 413 kts 311°
2026-05-06 14:20 49.37482 10.43594 23786 ft 410 kts 303°
2026-05-06 14:20 49.39126 10.40018 23780 ft 410 kts 302°
2026-05-06 14:20 49.40737 10.36474 23779 ft 410 kts 302°
2026-05-06 14:20 49.42373 10.32875 23769 ft 410 kts 302°
2026-05-06 14:21 49.44008 10.29278 23767 ft 410 kts 302°
2026-05-06 14:21 49.45639 10.25690 23767 ft 410 kts 302°
2026-05-06 14:21 49.47274 10.22090 23770 ft 409 kts 302°
2026-05-06 14:21 49.48887 10.18534 23774 ft 410 kts 302°
2026-05-06 14:22 49.50536 10.14895 23776 ft 409 kts 302°
2026-05-06 14:22 49.52112 10.11412 23498 ft 407 kts 302°
2026-05-06 14:22 49.53172 10.09067 22974 ft 409 kts 302°
2026-05-06 14:22 49.54571 10.05971 22387 ft 418 kts 303°
2026-05-06 14:23 49.56263 10.02216 22116 ft 430 kts 303°
2026-05-06 14:23 49.57957 9.98453 21389 ft 428 kts 303°
2026-05-06 14:23 49.59645 9.94708 20535 ft 431 kts 303°
2026-05-06 14:23 49.61340 9.90924 19882 ft 426 kts 302°
2026-05-06 14:24 49.63015 9.87173 19273 ft 422 kts 303°
2026-05-06 14:24 49.64675 9.83462 18651 ft 416 kts 302°
2026-05-06 14:24 49.66310 9.79803 18055 ft 411 kts 303°
2026-05-06 14:24 49.67933 9.76173 17462 ft 407 kts 303°
2026-05-06 14:25 49.69531 9.72595 16880 ft 403 kts 303°
2026-05-06 14:25 49.71116 9.69041 16298 ft 400 kts 303°
2026-05-06 14:25 49.72728 9.65564 15843 ft 394 kts 307°
2026-05-06 14:25 49.74444 9.62333 15079 ft 394 kts 308°
2026-05-06 14:26 49.76221 9.59096 14323 ft 394 kts 309°
2026-05-06 14:26 49.78006 9.55877 13655 ft 391 kts 309°
2026-05-06 14:26 49.79774 9.52700 13000 ft 388 kts 309°
2026-05-06 14:26 49.81534 9.49542 12343 ft 384 kts 309°
2026-05-06 14:27 49.83272 9.46423 11680 ft 380 kts 309°
2026-05-06 14:27 49.84972 9.43371 11014 ft 376 kts 309°
2026-05-06 14:27 49.86666 9.40325 10247 ft 371 kts 310°
2026-05-06 14:27 49.88357 9.37297 9503 ft 372 kts 310°
2026-05-06 14:28 49.90034 9.34283 8879 ft 366 kts 310°
2026-05-06 14:28 49.91693 9.31287 8195 ft 362 kts 310°
2026-05-06 14:28 49.93329 9.28331 7493 ft 359 kts 310°
2026-05-06 14:28 49.94949 9.25402 6989 ft 355 kts 310°
2026-05-06 14:29 49.96554 9.22498 6801 ft 355 kts 310°
2026-05-06 14:29 49.98149 9.19616 6709 ft 354 kts 310°
2026-05-06 14:29 49.99749 9.16720 6096 ft 352 kts 309°
2026-05-06 14:29 50.01330 9.13847 5430 ft 347 kts 310°
2026-05-06 14:30 50.02895 9.11005 4707 ft 344 kts 310°
2026-05-06 14:30 50.04444 9.08186 4206 ft 340 kts 310°
2026-05-06 14:30 50.05946 9.05451 4017 ft 323 kts 310°
2026-05-06 14:30 50.07359 9.02878 3983 ft 300 kts 309°
2026-05-06 14:31 50.08652 9.00519 3984 ft 280 kts 309°
2026-05-06 14:31 50.09879 8.98280 3987 ft 261 kts 309°
2026-05-06 14:31 50.11012 8.96191 3988 ft 242 kts 308°
2026-05-06 14:31 50.11713 8.93953 3983 ft 221 kts 277°
2026-05-06 14:32 50.11719 8.91674 3985 ft 204 kts 260°
2026-05-06 14:32 50.11367 8.89617 3978 ft 188 kts 250°
2026-05-06 14:32 50.10928 8.87779 4021 ft 177 kts 249°
2026-05-06 14:32 50.10495 8.85988 3988 ft 176 kts 249°
2026-05-06 14:33 50.10077 8.84188 3835 ft 176 kts 250°
2026-05-06 14:33 50.09664 8.82405 3572 ft 174 kts 249°
2026-05-06 14:33 50.09237 8.80622 3315 ft 176 kts 249°
2026-05-06 14:33 50.08815 8.78852 3066 ft 176 kts 250°
2026-05-06 14:34 50.08389 8.77063 2831 ft 176 kts 249°
2026-05-06 14:34 50.07966 8.75281 2597 ft 175 kts 250°
2026-05-06 14:34 50.07544 8.73509 2363 ft 173 kts 249°
2026-05-06 14:34 50.07127 8.71762 2140 ft 170 kts 250°
2026-05-06 14:35 50.06725 8.70069 1905 ft 163 kts 249°
2026-05-06 14:35 50.06472 8.68414 1650 ft 156 kts 265°
2026-05-06 14:35 50.06353 8.66782 1430 ft 147 kts 261°
2026-05-06 14:35 50.06121 8.65294 1265 ft 136 kts 251°
2026-05-06 14:36 50.05793 8.63941 1120 ft 133 kts 246°
2026-05-06 14:36 50.05431 8.62609 944 ft 134 kts 248°
2026-05-06 14:36 50.05112 8.61249 789 ft 135 kts 251°
2026-05-06 14:36 50.04788 8.59853 578 ft 137 kts 251°
2026-05-06 14:37 50.04468 8.58503 405 ft 133 kts 250°
2026-05-06 14:37 50.04164 8.57232 374 ft 106 kts 249°
2026-05-06 14:37 50.03972 8.56437 361 ft 55 kts 249°
2026-05-06 14:37 50.03886 8.56021 360 ft 24 kts 262°
2026-05-06 14:38 50.03891 8.55785 359 ft 11 kts 280°
2026-05-06 14:38 50.03894 8.55761 355 ft 2 kts 281°
2026-05-06 14:38 50.03896 8.55747 357 ft 1 kts 281°
2026-05-06 14:38 50.03899 8.55722 359 ft 4 kts 281°
2026-05-06 14:39 50.03900 8.55715 359 ft 0 kts 281°
2026-05-06 14:39 50.03900 8.55712 355 ft 2 kts 281°
2026-05-06 14:40 50.03937 8.55613 359 ft 11 kts 339°
2026-05-06 14:40 50.03982 8.55676 364 ft 10 kts 69°
2026-05-06 14:40 50.04009 8.55787 363 ft 12 kts 69°
2026-05-06 14:40 50.04043 8.55923 359 ft 15 kts 69°